Regional Weather Roundup
Issued by NWS

Home | Current Version | Previous Version | Graphics & Text | Print | Product List | Glossary On
Versions: 1 2 3 4 5 6 7 8 9 10 11 12 13 14 15 16 17 18 19 20 21 22 23 24 25 26 27 28 29 30 31 32 33 34 35 36 37 38 39 40 41 42 43 44 45 46 47 48 49 50
000
ASUS43 KLMK 211710
RWRKY
KENTUCKY REGIONAL WEATHER ROUNDUP
NATIONAL WEATHER SERVICE LOUISVILLE KY
1200 PM EST SUN DEC 21 2014

NOTE "FAIR" INDICATES FEW OR NO CLOUDS BELOW 12,000 FEET
WITH NO SIGNIFICANT WEATHER AND/OR OBSTRUCTIONS TO VISIBILITY.

KYZ001>023-026-027-061>063-070>075-211800-
WESTERN AND SOUTH CENTRAL KENTUCKY

CITY           SKY/WX    TMP DP  RH WIND       PRES   REMARKS
PADUCAH        MOSUNNY   42  31  64 E6        30.21F
HENDERSON      SUNNY     37  28  70 SE7       30.24F WCI  32
OWENSBORO      SUNNY     39  30  70 SE9       30.24F WCI  33
HOPKINSVILLE   MOSUNNY   42  31  65 E8        30.21F
BOWLING GREEN  SUNNY     43  29  57 E9        30.23F
GLASGOW        SUNNY     43  30  59 E6        30.23S
$$

KYZ024-025-028>034-038-045-046-053-211800-
NORTH CENTRAL KENTUCKY

CITY           SKY/WX    TMP DP  RH WIND       PRES   REMARKS
LOUISVILLE/SDF PTSUNNY   38  28  67 E7        30.26F WCI  33
LOUISVILLE/LOU SUNNY     37  28  70 SE7       30.27F WCI  32
FORT KNOX      SUNNY     37  28  70 E7        30.22F WCI  31
$$

KYZ035>037-039>044-047>052-055>060-089>105-211800-
NORTHEAST KENTUCKY

CITY           SKY/WX    TMP DP  RH WIND       PRES   REMARKS
LEXINGTON      SUNNY     36  28  73 E6        30.26F WCI  31
COVINGTON      MOSUNNY   34  24  67 SE8       30.28F WCI  27
FRANKFORT      MOSUNNY   35  27  72 E7        30.26F WCI  29
$$

KYZ054-064>069-076>088-106>120-211800-
SOUTHEAST KENTUCKY

CITY           SKY/WX    TMP DP  RH WIND       PRES   REMARKS
JACKSON        SUNNY     36  26  67 VRB3      30.24F
LONDON         SUNNY     42  27  55 E7        30.23F
SOMERSET       SUNNY     39  28  65 E5        30.24F
MIDDLESBORO    SUNNY     38  31  76 CALM      30.23F
MONTICELLO     SUNNY     43  29  58 SE6       30.25F
$$



USA.gov is the U.S. government's official web portal to all federal, state and local government web resources and services.